| time (UTC) | temp F | wind direction | speed MPH | gust MPH | rain 1hr in | rain 24hr in | rain mn in | humidity % | barometer mb |
| 20260506081555 | 53 | 249 | 0.0 | 2.0 | 0.00 | 0.00 | 0.00 | 81 | 1023.2 |
| 20260506073050 | 57 | 230 | 0.0 | 1.0 | 0.00 | 0.00 | 0.00 | 73 | 1023.2 |
| 20260506071548 | 58 | 230 | 0.0 | 0.0 | 0.00 | 0.00 | 0.00 | 72 | 1023.1 |
| 20260506061546 | 60 | 260 | 0.0 | 4.0 | 0.00 | 0.00 | 0.00 | 73 | 1022.8 |
| 20260506044546 | 64 | 262 | 3.0 | 9.0 | 0.00 | 0.00 | 0.00 | 66 | 1022.0 |
| 20260506043042 | 65 | 252 | 5.0 | 12.0 | 0.00 | 0.00 | 0.00 | 64 | 1021.8 |
| 20260506041540 | 65 | 269 | 5.0 | 13.0 | 0.00 | 0.00 | 0.00 | 64 | 1021.8 |
| 20260506040055 | 66 | 276 | 6.0 | 11.0 | 0.00 | 0.00 | 0.00 | 62 | 1021.8 |
| 20260506034542 | 66 | 278 | 6.0 | 14.0 | 0.00 | 0.00 | 0.00 | 60 | 1021.7 |
| 20260506033038 | 67 | 272 | 6.0 | 13.0 | 0.00 | 0.00 | 0.00 | 61 | 1021.5 |
| 20260506031552 | 67 | 276 | 6.0 | 11.0 | 0.00 | 0.00 | 0.00 | 58 | 1021.5 |
| 20260506030037 | 68 | 252 | 6.0 | 13.0 | 0.00 | 0.00 | 0.00 | 57 | 1021.5 |
| 20260506024533 | 67 | 250 | 8.0 | 14.0 | 0.00 | 0.00 | 0.00 | 55 | 1021.6 |
| 20260506023032 | 68 | 284 | 7.0 | 14.0 | 0.00 | 0.00 | 0.00 | 55 | 1021.5 |
| 20260506021528 | 68 | 249 | 8.0 | 17.0 | 0.00 | 0.00 | 0.00 | 55 | 1021.7 |
| 20260506020025 | 68 | 274 | 7.0 | 18.0 | 0.00 | 0.00 | 0.00 | 57 | 1021.9 |
| 20260506014522 | 68 | 294 | 6.0 | 14.0 | 0.00 | 0.00 | 0.00 | 61 | 1021.9 |
| 20260506013020 | 67 | 271 | 6.0 | 11.0 | 0.00 | 0.00 | 0.00 | 62 | 1022.0 |
| 20260506011518 | 68 | 265 | 6.0 | 14.0 | 0.00 | 0.00 | 0.00 | 61 | 1022.2 |
| 20260506010017 | 67 | 250 | 5.0 | 11.0 | 0.00 | 0.00 | 0.00 | 62 | 1022.3 |
| 20260506004523 | 68 | 254 | 5.0 | 11.0 | 0.00 | 0.00 | 0.00 | 62 | 1022.6 |
| 20260506003015 | 67 | 237 | 5.0 | 12.0 | 0.00 | 0.00 | 0.00 | 62 | 1022.9 |
| 20260506001511 | 68 | 239 | 7.0 | 13.0 | 0.00 | 0.00 | 0.00 | 58 | 1023.1 |
| 20260506000008 | 66 | 269 | 3.0 | 11.0 | 0.00 | 0.00 | 0.00 | 63 | 1023.4 |
| 20260505234506 | 67 | 271 | 6.0 | 17.0 | 0.00 | 0.00 | 0.00 | 59 | 1023.5 |
| 20260505233004 | 66 | 277 | 5.0 | 11.0 | 0.00 | 0.00 | 0.00 | 61 | 1023.7 |
| 20260505231501 | 66 | 264 | 3.0 | 9.0 | 0.00 | 0.00 | 0.00 | 65 | 1023.8 |
| 20260505230058 | 65 | 265 | 6.0 | 12.0 | 0.00 | 0.00 | 0.00 | 65 | 1023.9 |
| 20260505224558 | 65 | 261 | 4.0 | 11.0 | 0.00 | 0.00 | 0.00 | 64 | 1024.0 |
| 20260505223057 | 64 | 259 | 4.0 | 9.0 | 0.00 | 0.00 | 0.00 | 56 | 1024.1 |
| 20260505221552 | 64 | 256 | 4.0 | 8.0 | 0.00 | 0.00 | 0.00 | 57 | 1024.1 |
| 20260505220047 | 62 | 262 | 3.0 | 10.0 | 0.00 | 0.00 | 0.00 | 59 | 1024.3 |
| 20260505214550 | 61 | 269 | 4.0 | 8.0 | 0.00 | 0.00 | 0.00 | 60 | 1024.4 |
| 20260505213042 | 60 | 264 | 4.0 | 8.0 | 0.00 | 0.00 | 0.00 | 63 | 1024.4 |
| 20260505211535 | 58 | 283 | 4.0 | 9.0 | 0.00 | 0.00 | 0.00 | 66 | 1024.3 |
| 20260505210031 | 56 | 275 | 4.0 | 8.0 | 0.00 | 0.00 | 0.00 | 68 | 1024.6 |
| 20260505204533 | 54 | 261 | 4.0 | 9.0 | 0.00 | 0.00 | 0.00 | 71 | 1024.5 |
| 20260505203031 | 53 | 262 | 3.0 | 6.0 | 0.00 | 0.00 | 0.00 | 72 | 1024.4 |
| 20260505201525 | 53 | 249 | 1.0 | 5.0 | 0.00 | 0.00 | 0.00 | 69 | 1024.3 |
| 20260505200036 | 53 | 240 | 3.0 | 6.0 | 0.00 | 0.00 | 0.00 | 69 | 1024.3 |
| 20260505194522 | 54 | 236 | 2.0 | 4.0 | 0.00 | 0.00 | 0.00 | 66 | 1024.2 |
| 20260505193018 | 53 | 247 | 2.0 | 5.0 | 0.00 | 0.00 | 0.00 | 69 | 1024.2 |
| 20260505191517 | 51 | 255 | 2.0 | 6.0 | 0.00 | 0.00 | 0.00 | 73 | 1024.2 |
| 20260505190017 | 47 | 238 | 0.0 | 3.0 | 0.00 | 0.00 | 0.00 | 80 | 1024.3 |
| 20260505184515 | 47 | 246 | 0.0 | 4.0 | 0.00 | 0.00 | 0.00 | 79 | 1024.3 |
| 20260505183014 | 49 | 258 | 1.0 | 3.0 | 0.00 | 0.00 | 0.00 | 73 | 1024.4 |
| 20260505181515 | 52 | 250 | 0.0 | 3.0 | 0.00 | 0.00 | 0.00 | 70 | 1024.5 |
| 20260505180011 | 53 | 247 | 2.0 | 5.0 | 0.00 | 0.00 | 0.00 | 70 | 1024.7 |
| 20260505174508 | 53 | 250 | 1.0 | 3.0 | 0.00 | 0.00 | 0.00 | 71 | 1024.9 |
| 20260505173004 | 52 | 248 | 2.0 | 4.0 | 0.00 | 0.00 | 0.00 | 74 | 1025.0 |
| 20260505171502 | 50 | 245 | 3.0 | 4.0 | 0.00 | 0.00 | 0.00 | 78 | 1025.0 |
| 20260505170005 | 48 | 234 | 2.0 | 4.0 | 0.00 | 0.00 | 0.00 | 81 | 1024.9 |
| 20260505164622 | 47 | 237 | 2.0 | 4.0 | 0.00 | 0.00 | 0.00 | 83 | 1025.1 |
| 20260505163107 | 46 | 243 | 2.0 | 4.0 | 0.00 | 0.00 | 0.00 | 83 | 1025.2 |
| 20260505161613 | 46 | 261 | 2.0 | 5.0 | 0.00 | 0.00 | 0.00 | 82 | 1025.4 |
| 20260505153047 | 46 | 255 | 1.0 | 3.0 | 0.00 | 0.00 | 0.00 | 87 | 1025.7 |
| 20260505151546 | 43 | 244 | 1.0 | 2.0 | 0.00 | 0.00 | 0.00 | 89 | 1026.0 |
| 20260505124517 | 45 | 261 | 2.0 | 5.0 | 0.00 | 0.00 | 0.00 | 88 | 1027.2 |
| 20260505123013 | 44 | 244 | 2.0 | 6.0 | 0.00 | 0.00 | 0.00 | 89 | 1027.2 |
| 20260505121512 | 43 | 241 | 2.0 | 4.0 | 0.00 | 0.00 | 0.00 | 89 | 1027.1 |
| 20260505120007 | 43 | 248 | 0.0 | 1.0 | 0.00 | 0.00 | 0.00 | 88 | 1027.1 |
| 20260505114504 | 43 | 257 | 0.0 | 2.0 | 0.00 | 0.00 | 0.00 | 87 | 1027.2 |
| 20260505113007 | 44 | 248 | 0.0 | 1.0 | 0.00 | 0.00 | 0.00 | 87 | 1027.3 |
| 20260505111509 | 45 | 248 | 0.0 | 2.0 | 0.00 | 0.00 | 0.00 | 87 | 1027.3 |
| 20260505101604 | 46 | 250 | 1.0 | 3.0 | 0.00 | 0.00 | 0.00 | 88 | 1027.6 |
| 20260505094600 | 45 | 245 | 0.0 | 1.0 | 0.00 | 0.00 | 0.00 | 85 | 1027.6 |
| 20260505093108 | 46 | 245 | 0.0 | 0.0 | 0.00 | 0.00 | 0.00 | 82 | 1027.7 |
| 20260505091558 | 48 | 245 | 0.0 | 1.0 | 0.00 | 0.00 | 0.00 | 81 | 1027.7 |
| 20260505090057 | 50 | 245 | 1.0 | 3.0 | 0.00 | 0.00 | 0.00 | 79 | 1027.6 |
| 20260505084557 | 53 | 272 | 5.0 | 11.0 | 0.00 | 0.00 | 0.00 | 78 | 1027.5 |
| 20260505083058 | 53 | 266 | 5.0 | 9.0 | 0.00 | 0.00 | 0.00 | 79 | 1027.4 |